Location: Newark
(33.6439°N, 114.9881°W)
Time: 06:14:37
(UTC+00:00)

A-11 Canister half - Pass Details

Date: 25 August 2019
Orbit: 1527 x 1682 km, 47.3° (Epoch: 15 September)

Event Time Altitude Azimuth Distance (km) Brightness Sun altitude
Rises 21:34:16 0° 288° (WNW) 4,886 11.9 55.5°
Reaches altitude 10° 21:37:48 10° 297° (WNW) 3,915 11.5 54.9°
Maximum altitude 21:46:57 37° 2° (N) 2,402 10.3 53.3°
Drops below altitude 10° 21:56:10 10° 67° (ENE) 3,941 10.9 51.6°
Sets 21:59:43 0° 76° (ENE) 4,922 11.3 51.0°
